| time (UTC) | temp F | wind direction | speed MPH | gust MPH | rain 1hr in | rain 24hr in | rain mn in | humidity % | barometer mb |
| 20260904173031 | 72 | 223 | 1.0 | 3.0 | 0.04 | 1.03 | 0.20 | 100 | 1026.2 |
| 20260904170408 | 72 | 317 | 1.0 | 3.0 | 0.04 | 1.02 | 0.19 | 100 | 1026.5 |
| 20260904170023 | 72 | 317 | 1.0 | 3.0 | 0.04 | 1.02 | 0.19 | 100 | 1026.5 |
| 20260904163052 | 72 | 203 | 2.0 | 4.0 | 0.02 | 0.99 | 0.16 | 100 | 1026.8 |
| 20260904160328 | 72 | 223 | 0.0 | 1.0 | 0.05 | 0.98 | 0.15 | 100 | 1026.9 |
| 20260904160107 | 72 | 218 | 0.0 | 0.0 | 0.05 | 0.98 | 0.15 | 100 | 1026.9 |
| 20260904153025 | 71 | 220 | 0.0 | 1.0 | 0.10 | 0.97 | 0.14 | 100 | 1026.7 |
| 20260904150343 | 71 | 143 | 1.0 | 4.0 | 0.09 | 0.93 | 0.10 | 100 | 1027.0 |
| 20260904150041 | 71 | 232 | 2.0 | 4.0 | 0.09 | 0.93 | 0.10 | 100 | 1026.8 |
| 20260904143058 | 71 | 186 | 1.0 | 5.0 | 0.03 | 0.87 | 0.04 | 100 | 1027.2 |
| 20260904140409 | 71 | 233 | 0.0 | 3.0 | 0.00 | 0.84 | 0.01 | 100 | 1026.7 |
| 20260904140327 | 71 | 233 | 0.0 | 3.0 | 0.00 | 0.84 | 0.01 | 100 | 1026.7 |
| 20260904140105 | 71 | 233 | 1.0 | 3.0 | 0.00 | 0.84 | 0.01 | 100 | 1026.6 |
| 20260904133029 | 71 | 217 | 0.0 | 0.0 | 0.00 | 0.85 | 0.01 | 100 | 1025.9 |
| 20260904130352 | 70 | 217 | 0.0 | 0.0 | 0.00 | 0.85 | 0.01 | 100 | 1026.5 |
| 20260904130135 | 70 | 217 | 0.0 | 0.0 | 0.00 | 0.85 | 0.01 | 100 | 1026.4 |
| 20260904123058 | 69 | 217 | 0.0 | 0.0 | 0.00 | 0.85 | 0.01 | 100 | 1026.1 |
| 20260904120332 | 68 | 217 | 0.0 | 2.0 | 0.00 | 0.85 | 0.01 | 100 | 1026.3 |
| 20260904120033 | 68 | 217 | 1.0 | 2.0 | 0.00 | 0.85 | 0.01 | 100 | 1026.1 |
| 20260904113011 | 67 | 217 | 0.0 | 0.0 | 0.00 | 0.85 | 0.01 | 100 | 1025.9 |
| 20260904110314 | 66 | 217 | 0.0 | 1.0 | 0.00 | 0.85 | 0.01 | 100 | 1025.7 |
| 20260904110026 | 66 | 217 | 0.0 | 0.0 | 0.00 | 0.85 | 0.01 | 100 | 1025.7 |
| 20260904103031 | 67 | 217 | 0.0 | 0.0 | 0.00 | 0.86 | 0.01 | 100 | 1025.2 |
| 20260904100319 | 67 | 217 | 0.0 | 0.0 | 0.00 | 0.86 | 0.01 | 100 | 1025.2 |
| 20260904100015 | 67 | 217 | 0.0 | 0.0 | 0.00 | 0.86 | 0.01 | 100 | 1025.4 |
| 20260904093024 | 68 | 217 | 0.0 | 0.0 | 0.00 | 1.22 | 0.01 | 100 | 1025.7 |
| 20260904090354 | 68 | 217 | 0.0 | 2.0 | 0.00 | 1.22 | 0.01 | 100 | 1025.5 |
| 20260904090311 | 68 | 217 | 0.0 | 2.0 | 0.00 | 1.22 | 0.01 | 100 | 1025.5 |
| 20260904090033 | 68 | 217 | 1.0 | 2.0 | 0.00 | 1.22 | 0.01 | 100 | 1025.5 |
| 20260904083012 | 68 | 217 | 1.0 | 3.0 | 0.00 | 1.73 | 0.01 | 100 | 1025.4 |
| 20260904080318 | 68 | 314 | 1.0 | 3.0 | 0.00 | 1.73 | 0.01 | 100 | 1025.6 |
| 20260904080057 | 68 | 314 | 2.0 | 3.0 | 0.00 | 1.73 | 0.01 | 100 | 1025.6 |
| 20260904073111 | 68 | 314 | 1.0 | 2.0 | 0.00 | 1.73 | 0.01 | 100 | 1025.7 |
| 20260904070424 | 68 | 46 | 1.0 | 2.0 | 0.01 | 1.73 | 0.01 | 100 | 1025.8 |
| 20260904070036 | 68 | 47 | 1.0 | 2.0 | 0.01 | 1.73 | 0.01 | 100 | 1025.8 |
| 20260904063022 | 67 | 28 | 0.0 | 0.0 | 0.01 | 1.73 | 0.01 | 100 | 1025.9 |
| 20260904060331 | 67 | 28 | 0.0 | 2.0 | 0.00 | 1.72 | 0.00 | 100 | 1026.1 |
| 20260904060033 | 67 | 28 | 0.0 | 2.0 | 0.00 | 1.72 | 0.00 | 100 | 1025.9 |
| 20260904053015 | 67 | 28 | 0.0 | 0.0 | 0.00 | 2.04 | 0.00 | 100 | 1025.5 |
| 20260904050355 | 67 | 28 | 0.0 | 0.0 | 0.00 | 2.04 | 0.00 | 100 | 1025.6 |
| 20260904050015 | 67 | 28 | 0.0 | 0.0 | 0.00 | 2.04 | 0.00 | 100 | 1025.6 |
| 20260904043058 | 68 | 28 | 0.0 | 0.0 | 0.00 | 2.04 | 0.00 | 100 | 1025.8 |
| 20260904040318 | 69 | 29 | 1.0 | 4.0 | 0.00 | 2.04 | 0.00 | 100 | 1025.7 |
| 20260904040046 | 69 | 33 | 0.0 | 4.0 | 0.00 | 2.04 | 0.00 | 100 | 1025.6 |
| 20260904033010 | 69 | 182 | 0.0 | 1.0 | 0.00 | 2.04 | 2.04 | 100 | 1025.2 |
| 20260904030313 | 69 | 182 | 1.0 | 4.0 | 0.00 | 2.04 | 2.04 | 100 | 1025.1 |
| 20260904030053 | 69 | 182 | 1.0 | 4.0 | 0.00 | 2.04 | 2.04 | 100 | 1025.1 |
| 20260904023052 | 69 | 166 | 1.0 | 3.0 | 0.00 | 2.04 | 2.04 | 100 | 1025.0 |
| 20260904020316 | 69 | 121 | 0.0 | 2.0 | 0.00 | 2.04 | 2.04 | 100 | 1024.6 |
| 20260904020013 | 69 | 121 | 0.0 | 3.0 | 0.00 | 2.04 | 2.04 | 100 | 1024.5 |
| 20260904013048 | 69 | 121 | 0.0 | 1.0 | 0.00 | 2.04 | 2.04 | 100 | 1023.9 |
| 20260904010332 | 69 | 119 | 2.0 | 6.0 | 0.00 | 2.04 | 2.04 | 99 | 1023.7 |
| 20260904010027 | 69 | 140 | 1.0 | 6.0 | 0.01 | 2.04 | 2.04 | 99 | 1023.6 |
| 20260904003012 | 69 | 147 | 3.0 | 7.0 | 0.09 | 2.04 | 2.04 | 99 | 1023.5 |
| 20260904000318 | 70 | 143 | 3.0 | 5.0 | 0.24 | 2.04 | 2.04 | 99 | 1024.6 |
| 20260904000117 | 70 | 136 | 3.0 | 5.0 | 0.24 | 2.03 | 2.03 | 99 | 1024.8 |
| 20260903233104 | 70 | 153 | 1.0 | 2.0 | 0.23 | 1.94 | 1.94 | 99 | 1026.4 |
| 20260903230326 | 70 | 112 | 2.0 | 7.0 | 0.59 | 1.80 | 1.80 | 98 | 1026.8 |
| 20260903230038 | 70 | 355 | 1.0 | 7.0 | 0.58 | 1.79 | 1.79 | 98 | 1026.6 |
| 20260903223025 | 72 | 34 | 7.0 | 25.0 | 0.50 | 1.71 | 1.71 | 95 | 1027.7 |
| 20260903220349 | 75 | 131 | 1.0 | 3.0 | 0.00 | 1.21 | 1.21 | 96 | 1024.3 |
| 20260903213012 | 76 | 237 | 0.0 | 2.0 | 0.00 | 1.21 | 1.21 | 93 | 1024.0 |
| 20260903210357 | 78 | 306 | 3.0 | 8.0 | 0.00 | 1.21 | 1.21 | 88 | 1024.4 |
| 20260903203047 | 80 | 233 | 2.0 | 3.0 | 0.00 | 1.21 | 1.21 | 88 | 1024.0 |
| 20260903200324 | 81 | 71 | 4.0 | 9.0 | 0.00 | 1.21 | 1.21 | 87 | 1023.7 |
| 20260903200020 | 81 | 286 | 6.0 | 9.0 | 0.00 | 1.21 | 1.21 | 87 | 1024.0 |
| 20260903193024 | 84 | 360 | 4.0 | 10.0 | 0.00 | 1.21 | 1.21 | 86 | 1023.9 |
| 20260903190413 | 83 | 303 | 5.0 | 9.0 | 0.00 | 1.21 | 1.21 | 85 | 1024.3 |
| 20260903190048 | 83 | 315 | 5.0 | 9.0 | 0.00 | 1.21 | 1.21 | 85 | 1024.4 |
| 20260903183031 | 82 | 263 | 5.0 | 13.0 | 0.00 | 1.21 | 1.21 | 86 | 1024.6 |
| 20260903180358 | 82 | 265 | 5.0 | 14.0 | 0.00 | 1.21 | 1.21 | 85 | 1024.6 |
| 20260903180012 | 82 | 244 | 7.0 | 14.0 | 0.00 | 1.21 | 1.21 | 85 | 1024.6 |